Location: Czekanka
(50.4925°N, 19.2643°E)
Time: 08:25:50
(UTC+00:00)

Cosmos 2263 Rocket - Pass Details

Date: 21 September 2024
Orbit: 821 x 849 km, 71.0° (Epoch: 12 October)

Event Time Altitude Azimuth Distance (km) Brightness Sun altitude
Rises 03:48:00 0° 200° (SSW) 3,366 5.0 -7.2°
Reaches altitude 10° 03:50:26 10° 198° (SSW) 2,441 4.3 -6.8°
Maximum altitude 03:56:00 72° 115° (ESE) 886 2.6 -5.9°
Drops below altitude 10° 04:01:39 10° 33° (NNE) 2,475 5.3 -5.0°
Sets 04:04:08 0° 31° (NNE) 3,418 6.0 -4.6°
